�������l�o���
Date,Time,MP-1(��Sv/h),MP-2(��Sv/h),MP-3(��Sv/h),MP-4(��Sv/h),MP-5(��Sv/h),MP-6(��Sv/h),MP-7(��Sv/h),MP-8(��Sv/h),����,����(m/s),���J
2017/07/31,00:00,0.946,1.481,0.986,1.770,1.215,0.511,0.938,0.871,�k��,3.0,�L
2017/07/31,00:10,0.943,1.479,0.987,1.774,1.217,0.513,0.939,0.870,�k��,3.4,��
2017/07/31,00:20,0.942,1.480,0.988,1.770,1.219,0.511,0.939,0.872,�k��,2.8,�L
2017/07/31,00:30,0.946,1.483,0.987,1.776,1.218,0.512,0.939,0.870,�k��,3.1,��
2017/07/31,00:40,0.946,1.482,0.987,1.771,1.216,0.511,0.938,0.871,�k��,4.0,�L
2017/07/31,00:50,0.946,1.481,0.985,1.773,1.218,0.512,0.940,0.871,�k�k��,3.5,��
2017/07/31,01:00,0.947,1.483,0.988,1.773,1.217,0.512,0.938,0.870,�k�k��,3.4,��
2017/07/31,01:10,0.946,1.479,0.987,1.774,1.219,0.513,0.938,0.872,�k�k��,3.3,��
2017/07/31,01:20,0.945,1.482,0.986,1.773,1.219,0.513,0.939,0.872,�k�k��,3.2,��
2017/07/31,01:30,0.945,1.480,0.989,1.776,1.218,0.512,0.939,0.872,�k�k��,2.6,��
2017/07/31,01:40,0.947,1.481,0.987,1.775,1.219,0.512,0.937,0.871,�k�k��,3.1,��
2017/07/31,01:50,0.946,1.482,0.986,1.774,1.218,0.514,0.940,0.871,�k�k��,3.1,��
2017/07/31,02:00,0.945,1.483,0.988,1.772,1.219,0.514,0.938,0.872,�k�k��,2.8,��
2017/07/31,02:10,0.946,1.483,0.987,1.774,1.221,0.513,0.938,0.873,�k�k��,2.3,��
2017/07/31,02:20,0.946,1.480,0.987,1.773,1.219,0.512,0.940,0.871,�k�k��,2.0,��
2017/07/31,02:30,0.947,1.480,0.987,1.775,1.219,0.514,0.939,0.873,�k,2.0,��
2017/07/31,02:40,0.946,1.482,0.985,1.774,1.220,0.514,0.940,0.872,�k,1.4,��
2017/07/31,02:50,0.948,1.481,0.987,1.773,1.219,0.513,0.941,0.872,�k�k��,1.5,��
2017/07/31,03:00,0.946,1.482,0.988,1.774,1.220,0.512,0.942,0.871,�k,1.4,��
2017/07/31,03:10,0.947,1.484,0.989,1.773,1.221,0.512,0.940,0.872,�k�k��,1.7,��
2017/07/31,03:20,0.947,1.481,0.986,1.776,1.222,0.512,0.939,0.872,�k,2.3,��
2017/07/31,03:30,0.945,1.482,0.986,1.774,1.219,0.514,0.939,0.872,�k,1.4,��
2017/07/31,03:40,0.949,1.481,0.987,1.771,1.221,0.513,0.939,0.872,�k�k��,1.5,��
2017/07/31,03:50,0.945,1.481,0.987,1.772,1.222,0.513,0.940,0.872,�k,2.0,��
2017/07/31,04:00,0.946,1.480,0.990,1.772,1.220,0.512,0.939,0.872,�k,1.5,��
2017/07/31,04:10,0.946,1.481,0.985,1.774,1.219,0.513,0.942,0.870,�k�k��,1.4,��
2017/07/31,04:20,0.945,1.482,0.987,1.776,1.220,0.513,0.939,0.873,�k�k��,1.7,��
2017/07/31,04:30,0.945,1.479,0.987,1.776,1.220,0.514,0.940,0.872,�k�k��,1.2,��
2017/07/31,04:40,0.945,1.482,0.989,1.771,1.221,0.512,0.939,0.872,�k��,1.7,��
2017/07/31,04:50,0.947,1.484,0.988,1.772,1.219,0.514,0.940,0.871,�k�k��,2.3,��
2017/07/31,05:00,0.946,1.484,0.989,1.771,1.219,0.513,0.938,0.872,�k�k��,1.2,��
2017/07/31,05:10,0.945,1.481,0.987,1.774,1.219,0.513,0.941,0.870,�k,1.2,��
2017/07/31,05:20,0.947,1.483,0.985,1.771,1.221,0.513,0.940,0.873,�k,1.2,��
2017/07/31,05:30,0.946,1.483,0.987,1.773,1.220,0.514,0.941,0.873,�k,1.2,��
2017/07/31,05:40,0.946,1.483,0.987,1.774,1.223,0.513,0.939,0.871,�k�k��,1.1,�L
2017/07/31,05:50,0.944,1.482,0.987,1.773,1.222,0.511,0.939,0.871,�k�k��,1.7,��
2017/07/31,06:00,0.947,1.481,0.988,1.774,1.220,0.513,0.941,0.871,�k,1.5,�L
2017/07/31,06:10,0.945,1.482,0.988,1.778,1.219,0.513,0.939,0.872,�k,1.1,��
2017/07/31,06:20,0.946,1.480,0.984,1.776,1.220,0.514,0.941,0.871,�k�k��,1.9,��
2017/07/31,06:30,0.943,1.486,0.984,1.773,1.221,0.514,0.939,0.870,�k�k��,0.9,��
2017/07/31,06:40,0.947,1.482,0.983,1.774,1.222,0.512,0.939,0.872,�k,0.8,��
2017/07/31,06:50,0.946,1.482,0.985,1.775,1.223,0.513,0.940,0.872,�k,1.2,��
2017/07/31,07:00,0.943,1.483,0.985,1.774,1.223,0.513,0.940,0.870,�k,1.7,��
2017/07/31,07:10,0.946,1.480,0.986,1.775,1.223,0.513,0.941,0.871,�k�k��,1.7,��
2017/07/31,07:20,0.945,1.485,0.983,1.775,1.220,0.514,0.940,0.871,�k��,0.8,��
2017/07/31,07:30,0.946,1.484,0.985,1.772,1.222,0.512,0.940,0.871,�k,1.2,�L
2017/07/31,07:40,0.943,1.481,0.985,1.776,1.223,0.512,0.940,0.869,�k��,1.4,��
2017/07/31,07:50,0.945,1.481,0.988,1.777,1.224,0.514,0.939,0.870,�k�k��,1.1,��
2017/07/31,08:00,0.944,1.482,0.989,1.776,1.222,0.513,0.938,0.871,�k��,1.2,��
2017/07/31,08:10,0.947,1.481,0.987,1.778,1.222,0.513,0.940,0.872,�k�k��,1.2,��
2017/07/31,08:20,0.943,1.478,0.985,1.776,1.224,0.512,0.939,0.870,���k��,1.5,��
2017/07/31,08:30,0.945,1.480,0.985,1.776,1.224,0.512,0.940,0.871,���k��,2.0,��
2017/07/31,08:40,0.946,1.483,0.983,1.778,1.222,0.513,0.942,0.870,�k��,1.7,��
2017/07/31,08:50,0.946,1.483,0.986,1.778,1.221,0.513,0.943,0.869,�k��,2.0,��
2017/07/31,09:00,0.948,1.484,0.986,1.781,1.221,0.511,0.941,0.869,�k��,1.4,��
2017/07/31,09:10,0.948,1.486,0.986,1.780,1.224,0.512,0.943,0.870,�k��,2.0,��
2017/07/31,09:20,0.950,1.486,0.987,1.777,1.224,0.513,0.941,0.869,��,1.7,��
2017/07/31,09:30,0.949,1.485,0.985,1.778,1.225,0.515,0.943,0.869,��,1.4,��
2017/07/31,09:40,0.951,1.486,0.986,1.781,1.226,0.513,0.941,0.871,���쓌,1.9,��
2017/07/31,09:50,0.949,1.486,0.987,1.781,1.226,0.513,0.944,0.871,���쓌,1.9,��
2017/07/31,10:00,0.951,1.484,0.988,1.778,1.230,0.513,0.942,0.868,���k��,1.7,��
2017/07/31,10:10,0.951,1.487,0.986,1.782,1.228,0.514,0.944,0.871,�k��,2.5,��
2017/07/31,10:20,0.950,1.489,0.989,1.780,1.229,0.515,0.943,0.870,���쓌,1.7,��
2017/07/31,10:30,0.951,1.487,0.990,1.781,1.230,0.516,0.944,0.869,���쓌,2.0,��
2017/07/31,10:40,0.954,1.491,0.990,1.781,1.230,0.515,0.944,0.871,�쓌,1.9,��
2017/07/31,10:50,0.955,1.492,0.989,1.779,1.231,0.516,0.944,0.870,�쓌,2.0,��
2017/07/31,11:00,0.954,1.490,0.992,1.780,1.231,0.516,0.945,0.871,���쓌,2.9,��
2017/07/31,11:10,0.954,1.491,0.990,1.780,1.232,0.516,0.944,0.872,�쓌,3.1,��
2017/07/31,11:20,0.953,1.493,0.992,1.780,1.233,0.515,0.945,0.872,���쓌,1.9,��
2017/07/31,11:30,0.955,1.494,0.992,1.781,1.232,0.516,0.944,0.874,�쓌,2.5,��
2017/07/31,11:40,0.957,1.496,0.991,1.782,1.234,0.516,0.945,0.872,�쓌,2.0,��
2017/07/31,11:50,0.957,1.496,0.992,1.783,1.235,0.516,0.946,0.873,�쓌,2.3,��
2017/07/31,12:00,0.957,1.497,0.991,1.784,1.238,0.517,0.947,0.871,�쓌,2.3,��
2017/07/31,12:10,0.956,1.499,0.991,1.782,1.238,0.517,0.945,0.870,�쓌,2.6,��
2017/07/31,12:20,0.957,1.499,0.995,1.785,1.239,0.517,0.946,0.872,�쓌,3.3,��
2017/07/31,12:30,0.959,1.500,0.992,1.784,1.237,0.516,0.945,0.872,���쓌,2.2,��
2017/07/31,12:40,0.959,1.500,0.995,1.787,1.239,0.517,0.944,0.872,�쓌,2.2,��
2017/07/31,12:50,0.959,1.504,0.994,1.786,1.241,0.517,0.945,0.873,�쓌,3.1,��
2017/07/31,13:00,0.959,1.501,0.993,1.785,1.240,0.517,0.946,0.872,��쓌,3.0,�L
2017/07/31,13:10,0.961,1.500,0.995,1.790,1.239,0.517,0.947,0.872,�쓌,2.9,�L
2017/07/31,13:20,0.961,1.503,0.994,1.789,1.240,0.521,0.945,0.873,�쓌,4.5,��
2017/07/31,13:30,0.962,1.502,0.996,1.786,1.242,0.520,0.948,0.872,��쓌,5.6,��
2017/07/31,13:40,0.959,1.501,0.998,1.787,1.241,0.519,0.948,0.872,��쓌,4.3,��
2017/07/31,13:50,0.961,1.503,0.999,1.784,1.243,0.519,0.948,0.873,��쓌,4.9,��
2017/07/31,14:00,0.960,1.502,0.998,1.791,1.244,0.520,0.946,0.871,��쓌,4.7,��
2017/07/31,14:10,0.961,1.507,1.000,1.789,1.246,0.520,0.949,0.872,��쓌,4.1,��
2017/07/31,14:20,0.962,1.506,1.000,1.789,1.243,0.521,0.946,0.875,��쓌,5.4,��
2017/07/31,14:30,0.967,1.504,0.997,1.788,1.245,0.520,0.948,0.875,��쓌,5.0,��
2017/07/31,14:40,0.962,1.506,1.000,1.789,1.247,0.519,0.946,0.875,��쓌,5.4,��
2017/07/31,14:50,0.963,1.507,1.001,1.791,1.243,0.521,0.947,0.874,��쓌,5.4,��
2017/07/31,15:00,0.962,1.507,1.000,1.791,1.245,0.520,0.948,0.875,��쓌,5.2,��
2017/07/31,15:10,0.966,1.507,1.000,1.793,1.245,0.521,0.947,0.874,��쓌,4.3,��
2017/07/31,15:20,0.964,1.509,1.000,1.794,1.247,0.521,0.948,0.875,��쓌,4.6,��
2017/07/31,15:30,0.965,1.507,1.001,1.791,1.246,0.521,0.947,0.875,��쓌,5.0,��
2017/07/31,15:40,0.964,1.508,1.002,1.793,1.246,0.521,0.947,0.874,��쓌,5.2,��
2017/07/31,15:50,0.963,1.510,1.002,1.794,1.245,0.520,0.949,0.875,��쓌,5.1,��
2017/07/31,16:00,0.964,1.509,1.001,1.794,1.248,0.521,0.949,0.874,��쓌,5.0,��
2017/07/31,16:10,0.963,1.510,1.001,1.794,1.246,0.520,0.948,0.874,��쓌,5.0,��
2017/07/31,16:20,0.964,1.509,1.000,1.794,1.245,0.520,0.950,0.874,��쓌,4.9,��
2017/07/31,16:30,0.966,1.511,1.002,1.795,1.247,0.521,0.948,0.874,��쓌,4.6,��
2017/07/31,16:40,0.964,1.509,1.002,1.794,1.247,0.520,0.947,0.874,��,5.3,��
2017/07/31,16:50,0.964,1.510,1.002,1.795,1.247,0.521,0.948,0.875,��,4.5,��
2017/07/31,17:00,0.964,1.510,1.001,1.794,1.245,0.522,0.949,0.872,��쓌,4.0,��
2017/07/31,17:10,0.965,1.507,1.001,1.794,1.250,0.520,0.949,0.874,��쓌,4.4,��
2017/07/31,17:20,0.968,1.512,1.002,1.795,1.249,0.521,0.950,0.872,��쓌,3.0,��
2017/07/31,17:30,0.966,1.511,1.002,1.797,1.249,0.522,0.948,0.875,��쓌,1.4,��
2017/07/31,17:40,0.964,1.511,1.002,1.795,1.251,0.521,0.949,0.874,-,CALM,��
2017/07/31,17:50,0.964,1.508,1.003,1.794,1.249,0.523,0.949,0.875,�k��,1.2,��
2017/07/31,18:00,0.964,1.511,1.002,1.793,1.251,0.522,0.946,0.876,�k,1.2,��
2017/07/31,18:10,0.964,1.512,1.004,1.796,1.251,0.521,0.947,0.876,�k��,0.6,��
2017/07/31,18:20,0.965,1.511,1.007,1.798,1.249,0.522,0.948,0.875,-,CALM,��
2017/07/31,18:30,0.963,1.510,1.005,1.796,1.248,0.523,0.948,0.875,���k��,1.2,��
2017/07/31,18:40,0.963,1.512,1.004,1.796,1.249,0.522,0.947,0.876,-,CALM,��
2017/07/31,18:50,0.964,1.513,1.003,1.796,1.248,0.522,0.950,0.875,-,CALM,��
2017/07/31,19:00,0.964,1.514,1.006,1.797,1.250,0.522,0.949,0.875,���k��,1.2,��
2017/07/31,19:10,0.966,1.513,1.004,1.793,1.249,0.522,0.947,0.875,���k��,1.4,��
2017/07/31,19:20,0.965,1.514,1.003,1.794,1.249,0.523,0.946,0.875,��,0.6,��
2017/07/31,19:30,0.965,1.511,1.005,1.794,1.250,0.524,0.948,0.877,��,1.2,��
2017/07/31,19:40,0.967,1.514,1.006,1.799,1.250,0.524,0.949,0.877,���k��,1.2,��
2017/07/31,19:50,0.965,1.514,1.004,1.797,1.250,0.523,0.948,0.876,��,0.6,��
2017/07/31,20:00,0.965,1.513,1.006,1.796,1.247,0.523,0.947,0.876,���k��,1.2,��
2017/07/31,20:10,0.966,1.514,1.005,1.795,1.251,0.524,0.947,0.876,���k��,1.2,��
2017/07/31,20:20,0.967,1.511,1.005,1.798,1.249,0.523,0.949,0.874,���k��,0.9,��
2017/07/31,20:30,0.966,1.516,1.006,1.798,1.252,0.522,0.949,0.877,���k��,1.4,��
2017/07/31,20:40,0.969,1.511,1.005,1.797,1.250,0.523,0.948,0.876,��,1.1,��
2017/07/31,20:50,0.966,1.510,1.004,1.797,1.249,0.521,0.950,0.876,�k��,0.9,��
2017/07/31,21:00,0.967,1.514,1.004,1.799,1.249,0.524,0.949,0.875,��,1.4,��
2017/07/31,21:10,0.970,1.515,1.006,1.796,1.251,0.522,0.950,0.877,�쐼,1.5,��
2017/07/31,21:20,0.971,1.513,1.006,1.796,1.249,0.524,0.950,0.876,�쐼,2.0,��
2017/07/31,21:30,0.968,1.512,1.005,1.797,1.248,0.524,0.947,0.877,�쐼,2.0,��
2017/07/31,21:40,0.968,1.513,1.004,1.796,1.249,0.524,0.950,0.878,�쐼,2.0,��
2017/07/31,21:50,0.967,1.513,1.006,1.798,1.248,0.524,0.949,0.877,�쐼,2.0,��
2017/07/31,22:00,0.968,1.512,1.007,1.798,1.250,0.523,0.950,0.878,�쐼,2.3,��
2017/07/31,22:10,0.968,1.513,1.006,1.798,1.251,0.522,0.948,0.876,�쐼,1.7,��
2017/07/31,22:20,0.966,1.513,1.007,1.798,1.249,0.525,0.950,0.876,��쐼,2.0,��
2017/07/31,22:30,0.968,1.516,1.007,1.799,1.250,0.524,0.951,0.876,�쐼,1.9,��
2017/07/31,22:40,0.970,1.515,1.004,1.798,1.250,0.523,0.950,0.876,��쐼,1.5,��
2017/07/31,22:50,0.968,1.514,1.004,1.800,1.250,0.525,0.950,0.878,��쐼,1.1,��
2017/07/31,23:00,0.968,1.513,1.005,1.798,1.252,0.525,0.949,0.876,��,1.7,��
2017/07/31,23:10,0.969,1.515,1.007,1.799,1.249,0.523,0.950,0.877,���k��,1.9,��
2017/07/31,23:20,0.969,1.512,1.005,1.799,1.250,0.524,0.950,0.877,�k�k��,1.7,��
2017/07/31,23:30,0.968,1.513,1.004,1.796,1.249,0.522,0.949,0.877,�k�k��,3.2,��
2017/07/31,23:40,0.968,1.513,1.006,1.798,1.248,0.525,0.950,0.877,�k�k��,3.2,��
2017/07/31,23:50,0.967,1.514,1.006,1.796,1.247,0.524,0.948,0.877,�k,6.1,��
